User: anonymous   Login
Location: Holcomb Observatory
(44.4922°N, 73.1654°W)
Time: 08:14:47
(UTC-04:00)
Language:

Cosmos 1727 Rocket - Orbit

View from above orbital plane
View from above orbital plane
View from above satellite
View from above satellite

Ground track
Ground track

The orbit data is extracted from the following two-line orbital elements,

1 16511U 86008B   14293.36374457  .00000092  00000-0  79138-4 0  6062
2 16511 082.9477 219.8396 0025614 113.7043 007.8317 13.75770956442789
Epoch (UTC): 20 October 2014 08:43:47
Eccentricity: 0.0025614
inclination: 82.9477°
perigee height: 960 km
apogee height: 998 km
right ascension of ascending node: 219.8396°
argument of perigee: 113.7043°
revolutions per day: 13.75770956
mean anomaly at epoch: 7.8317°
orbit number at epoch: 44278

The dashed part of the orbit path shows where the satellite is in the earth's shadow,  

DLR